Back to catalog

IRIDIUM 158

AliveCommunicationsPO
NORAD 43571·PAYLOAD·🇺🇸 United States

Launched Jul 25, 2018 from Vandenberg Space Force Base

Loading…

Next Passes (next 24 hours)

TLE

FreshSource: CelesTrak SupGP

Epoch: Sep 14, 2026, 08:48 UTC

1 43571C 18061C   26257.36701389 -.00002519  00000+0 -90073-3 0  2572
2 43571  86.4011  19.4587 0002220  95.1141 313.0113 14.34222222    10

Track IRIDIUM 158 in real time with AllMySat

Download on the App Store